Location: Bruderhein
(53.8035°N, 112.9265°W)
Time: 10:24:29
(UTC+00:00)

Envisat - Pass Details

Date: 29 May 2024
Orbit: 762 x 764 km, 98.3° (Epoch: 13 June)

Event Time Altitude Azimuth Distance (km) Brightness Sun altitude
Rises 09:24:59 0° 27° (NNE) 3,240 8.6 -10.5°
Reaches altitude 10° 09:28:20 10° 50° (NE) 2,308 6.7 -10.2°
Maximum altitude 09:31:13 15° 85° (E) 1,971 5.6 -10.0°
Drops below altitude 10° 09:34:06 10° 120° (ESE) 2,298 5.5 -9.8°
Sets 09:37:25 0° 143° (SE) 3,218 6.0 -9.6°
